When you browse on this site, cookies collect data to enhance your experience and personalize the content and advertising you see.
Visit our Privacy Policy to learn more. By continuing to use the site, you agree to this use of cookies and data.
  • în România
  • Lista ţărilor
  • Pe 7 zile
  • Temperatura apei
  • Hartă satelitară
  • Meteo pe hartă
  • Widget-uri
  • user-avatar
    Intrare

    Meteo pe oră la Bezivanovka

    Astăzi, 16 Ianuarie, Miercuri

    Timp Temperatura Precipitaţii Vânt Presiune Umiditate
    00:00 -2°C° 0 mm 3 m/s 716 mmHg 91%
    01:00 -2°C° 0 mm 3 m/s 716 mmHg 89%
    02:00 -2°C° 0 mm 2 m/s 715 mmHg 87%
    03:00 -1°C° 0 mm 1 m/s 715 mmHg 91%
    04:00 -1°C° 0 mm 0 m/s 715 mmHg 87%
    05:00 0°C° 0 mm 0 m/s 715 mmHg 84%
    06:00 0°C° 0 mm 0 m/s 715 mmHg 80%
    07:00 +1°C° 0 mm 0 m/s 715 mmHg 76%
    08:00 +3°C° 0 mm 1 m/s 715 mmHg 71%
    09:00 +3°C° 0 mm 1 m/s 715 mmHg 67%
    10:00 +4°C° 0 mm 2 m/s 715 mmHg 64%
    11:00 +5°C° 0 mm 2 m/s 716 mmHg 62%
    12:00 +5°C° 0 mm 3 m/s 716 mmHg 59%
    13:00 +3°C° 0 mm 5 m/s 717 mmHg 65%
    14:00 0°C° 0 mm 7 m/s 718 mmHg 71%
    15:00 -1°C° 0 mm 9 m/s 719 mmHg 77%
    16:00 -2°C° 0 mm 7 m/s 720 mmHg 78%
    17:00 -2°C° 0 mm 6 m/s 720 mmHg 80%
    18:00 -2°C° 0 mm 5 m/s 721 mmHg 81%
    19:00 -2°C° 0.1 mm 5 m/s 722 mmHg 81%
    20:00 -3°C° 0.1 mm 4 m/s 722 mmHg 80%
    21:00 -3°C° 0.1 mm 4 m/s 723 mmHg 80%
    22:00 -3°C° 0 mm 4 m/s 723 mmHg 79%
    23:00 -2°C° 0 mm 3 m/s 724 mmHg 77%

    Mâine, 17 Ianuarie, Joi

    Timp Temperatura Precipitaţii Vânt Presiune Umiditate
    00:00 -2°C° 0 mm 3 m/s 724 mmHg 76%
    01:00 -2°C° 0 mm 2 m/s 724 mmHg 77%
    02:00 -3°C° 0 mm 2 m/s 725 mmHg 77%
    03:00 -3°C° 0 mm 2 m/s 725 mmHg 78%
    04:00 -1°C° 0 mm 1 m/s 725 mmHg 78%
    05:00 -1°C° 0 mm 1 m/s 726 mmHg 78%
    06:00 -1°C° 0 mm 1 m/s 726 mmHg 79%
    07:00 0°C° 0 mm 1 m/s 727 mmHg 78%
    08:00 0°C° 0 mm 1 m/s 727 mmHg 76%
    09:00 0°C° 0 mm 1 m/s 728 mmHg 75%
    10:00 0°C° 0 mm 1 m/s 728 mmHg 72%
    11:00 +1°C° 0 mm 1 m/s 728 mmHg 68%
    12:00 +1°C° 0 mm 1 m/s 729 mmHg 64%
    13:00 +2°C° 0 mm 1 m/s 729 mmHg 65%
    14:00 +2°C° 0 mm 1 m/s 729 mmHg 65%
    15:00 +1°C° 0 mm 2 m/s 729 mmHg 65%
    16:00 -1°C° 0 mm 2 m/s 730 mmHg 70%
    17:00 -2°C° 0 mm 2 m/s 730 mmHg 76%
    18:00 -3°C° 0 mm 2 m/s 731 mmHg 81%
    19:00 -3°C° 0 mm 2 m/s 731 mmHg 83%
    20:00 -1°C° 0 mm 1 m/s 731 mmHg 84%
    21:00 -1°C° 0 mm 1 m/s 732 mmHg 86%
    22:00 -1°C° 0 mm 1 m/s 732 mmHg 85%
    23:00 -1°C° 0 mm 1 m/s 732 mmHg 84%

    Poimâine, 18 Ianuarie, Vineri

    Timp Temperatura Precipitaţii Vânt Presiune Umiditate
    00:00 -2°C° 0 mm 0 m/s 732 mmHg 82%
    01:00 -2°C° 0 mm 0 m/s 732 mmHg 81%
    02:00 -1°C° 0 mm 1 m/s 733 mmHg 79%
    03:00 -1°C° 0 mm 1 m/s 733 mmHg 77%
    04:00 -1°C° 0 mm 1 m/s 733 mmHg 75%
    05:00 -1°C° 0 mm 1 m/s 733 mmHg 73%
    06:00 -2°C° 0 mm 0 m/s 733 mmHg 71%
    07:00 -1°C° 0 mm 0 m/s 733 mmHg 67%
    08:00 0°C° 0 mm 0 m/s 733 mmHg 63%
    09:00 0°C° 0 mm 0 m/s 734 mmHg 59%
    10:00 +1°C° 0 mm 0 m/s 733 mmHg 54%
    11:00 +2°C° 0 mm 0 m/s 733 mmHg 49%
    12:00 +3°C° 0 mm 0 m/s 732 mmHg 44%
    13:00 +5°C° 0 mm 1 m/s 732 mmHg 46%
    14:00 +5°C° 0 mm 1 m/s 732 mmHg 48%
    15:00 +5°C° 0 mm 1 m/s 732 mmHg 51%
    16:00 +3°C° 0 mm 1 m/s 732 mmHg 56%
    17:00 +2°C° 0 mm 1 m/s 732 mmHg 62%
    18:00 -1°C° 0 mm 2 m/s 732 mmHg 68%
    19:00 +1°C° 0 mm 1 m/s 732 mmHg 68%
    20:00 0°C° 0 mm 1 m/s 732 mmHg 69%
    21:00 0°C° 0 mm 1 m/s 732 mmHg 70%
    22:00 0°C° 0 mm 1 m/s 732 mmHg 68%
    23:00 -1°C° 0 mm 0 m/s 732 mmHg 67%

    19 Ianuarie, Sâmbătă

    Timp Temperatura Precipitaţii Vânt Presiune Umiditate
    00:00 -1°C° 0 mm 0 m/s 732 mmHg 65%
    01:00 -1°C° 0 mm 0 m/s 732 mmHg 63%
    02:00 -1°C° 0 mm 0 m/s 731 mmHg 60%
    03:00 -1°C° 0 mm 0 m/s 731 mmHg 58%
    04:00 +1°C° 0 mm 1 m/s 731 mmHg 54%
    05:00 +1°C° 0 mm 1 m/s 731 mmHg 51%
    06:00 +1°C° 0 mm 1 m/s 731 mmHg 48%
    07:00 +1°C° 0 mm 1 m/s 731 mmHg 44%
    08:00 +2°C° 0 mm 1 m/s 732 mmHg 40%
    09:00 +2°C° 0 mm 1 m/s 732 mmHg 37%
    10:00 +4°C° 0 mm 1 m/s 732 mmHg 33%
    11:00 +5°C° 0 mm 1 m/s 732 mmHg 30%
    12:00 +7°C° 0 mm 1 m/s 732 mmHg 27%
    13:00 +7°C° 0 mm 1 m/s 732 mmHg 31%
    14:00 +6°C° 0 mm 0 m/s 731 mmHg 35%
    15:00 +6°C° 0 mm 0 m/s 731 mmHg 39%
    16:00 +4°C° 0 mm 0 m/s 731 mmHg 41%
    17:00 +3°C° 0 mm 0 m/s 731 mmHg 43%
    18:00 +2°C° 0 mm 0 m/s 732 mmHg 45%
    19:00 +2°C° 0 mm 0 m/s 732 mmHg 46%
    20:00 +2°C° 0 mm 0 m/s 732 mmHg 47%
    21:00 +1°C° 0 mm 0 m/s 732 mmHg 47%
    22:00 +1°C° 0 mm 0 m/s 732 mmHg 47%
    23:00 +1°C° 0 mm 0 m/s 732 mmHg 47%

    20 Ianuarie, Duminică

    Timp Temperatura Precipitaţii Vânt Presiune Umiditate
    00:00 +1°C° 0 mm 0 m/s 732 mmHg 47%
    01:00 +2°C° 0 mm 1 m/s 732 mmHg 48%
    02:00 +2°C° 0 mm 1 m/s 732 mmHg 49%
    03:00 +2°C° 0 mm 1 m/s 733 mmHg 50%
    04:00 +2°C° 0 mm 1 m/s 733 mmHg 52%
    05:00 +1°C° 0 mm 0 m/s 733 mmHg 55%
    06:00 +1°C° 0 mm 0 m/s 733 mmHg 58%
    07:00 +2°C° 0 mm 1 m/s 733 mmHg 62%
    08:00 +2°C° 0 mm 1 m/s 733 mmHg 66%
    09:00 +2°C° 0 mm 1 m/s 734 mmHg 70%
    10:00 +3°C° 0 mm 1 m/s 733 mmHg 71%
    11:00 +2°C° 0 mm 2 m/s 733 mmHg 72%
    12:00 +3°C° 0 mm 2 m/s 733 mmHg 73%
    13:00 +3°C° 0 mm 2 m/s 732 mmHg 73%
    14:00 +3°C° 0 mm 2 m/s 732 mmHg 74%
    15:00 +3°C° 0 mm 2 m/s 732 mmHg 74%
    16:00 +2°C° 0 mm 2 m/s 732 mmHg 79%
    17:00 +1°C° 0 mm 2 m/s 732 mmHg 83%
    18:00 -1°C° 0 mm 2 m/s 732 mmHg 88%
    19:00 -1°C° 0 mm 2 m/s 732 mmHg 89%
    20:00 -1°C° 0 mm 2 m/s 732 mmHg 90%
    21:00 -2°C° 0 mm 2 m/s 732 mmHg 90%
    22:00 -2°C° 0 mm 2 m/s 732 mmHg 90%
    23:00 -2°C° 0 mm 2 m/s 732 mmHg 89%

    21 Ianuarie, Luni

    Timp Temperatura Precipitaţii Vânt Presiune Umiditate
    00:00 -2°C° 0 mm 2 m/s 732 mmHg 88%
    01:00 -2°C° 0 mm 2 m/s 731 mmHg 88%
    02:00 -2°C° 0 mm 2 m/s 731 mmHg 88%
    03:00 -2°C° 0 mm 2 m/s 731 mmHg 87%
    04:00 -2°C° 0 mm 2 m/s 731 mmHg 87%
    05:00 -2°C° 0 mm 2 m/s 730 mmHg 86%
    06:00 -2°C° 0 mm 2 m/s 730 mmHg 85%
    07:00 -2°C° 0 mm 2 m/s 730 mmHg 82%
    08:00 -2°C° 0 mm 2 m/s 730 mmHg 79%
    09:00 -1°C° 0 mm 2 m/s 729 mmHg 76%
    10:00 +1°C° 0 mm 2 m/s 729 mmHg 68%
    11:00 +3°C° 0 mm 2 m/s 728 mmHg 60%
    12:00 +4°C° 0 mm 2 m/s 728 mmHg 52%
    13:00 +5°C° 0 mm 2 m/s 727 mmHg 53%
    14:00 +5°C° 0 mm 2 m/s 727 mmHg 54%
    15:00 +5°C° 0 mm 2 m/s 726 mmHg 54%
    16:00 +4°C° 0 mm 2 m/s 726 mmHg 58%
    17:00 +3°C° 0 mm 2 m/s 726 mmHg 62%
    18:00 +2°C° 0 mm 1 m/s 726 mmHg 66%
    19:00 +3°C° 0 mm 1 m/s 726 mmHg 64%
    20:00 +3°C° 0 mm 1 m/s 726 mmHg 62%
    21:00 +3°C° 0 mm 1 m/s 726 mmHg 61%
    22:00 +2°C° 0 mm 2 m/s 726 mmHg 67%
    23:00 +1°C° 0 mm 3 m/s 727 mmHg 73%
    Arată mai mult